sat.trackr.live / text

‹ back to catalog

STARLINK-34536

NORAD 64748 · 2025-144AA

PAYLOAD ACTIVE UNKNOWN

§ Identity

Operator
Country
US
Launch date
2025-07-02
Launch site
AFETR
Launch vehicle
Mass (kg)
RCS (m²)

Purposes: comms

External: N2YO · Heavens-Above · Gunter

§ Orbital elements

Epoch: 2026-05-25T03:02:32.402688Z

Period
94.10 min
Inclination
53.1579°
Eccentricity
0.0001077
Mean motion
15.30212538 rev/d
Perigee alt
474.4 km
Apogee alt
475.9 km
Semi-major
6,853.3 km
B*
6.5192e-4
RAAN
186.0679°
Arg perigee
78.6970°
Mean anomaly
281.4151°
Rev number
5,141

§ Raw data

STARLINK-345361 64748U 25144AA  26145.12676392  .00019006  00000+0  65192-3 0  99902 64748  53.1579 186.0679 0001077  78.6970 281.4151 15.30212538 51413

JSON: /api/v1/satellites/64748 · /tle

For live sub-satellite position, see the globe view (requires WebGL).

§ Visibility from observer

Set your observer location to see the next 7 days of passes ≥ 10°. The values pass through the URL so the page stays shareable.

No JS? Fill the form by hand. The geolocation button needs JavaScript.